#timestamp,LO_Frequency,Hit 
1503057615.5,286046995.2,N
1503057635.3,286046992.3,N
1503057655.2,286046991.1,N
1503057675.9,286046988.6,N
1503057695.7,286046988.0,N
1503057715.6,286046985.6,N
1503057735.4,286046988.0,N
1503057755.2,286046991.4,N
1503057775.1,286046990.1,N
1503057776.0,286046990.1,N
1503057795.8,286046994.9,N
1503057815.6,286047000.3,N
1503057835.5,286047001.8,N
1503057855.3,286047006.3,N
1503057875.1,286047009.5,N
1503057895.8,286047011.3,N
1503057915.7,286047012.7,N
1503057935.5,286047014.8,N
1503057955.3,286047013.2,N
1503057975.2,286047010.0,N
1503057995.9,286047007.3,N
1503058015.7,286047006.3,N
1503058035.6,286047002.9,N
1503058055.4,286047002.3,N
1503058075.2,286047000.3,N
1503058095.1,286047002.4,N
1503058096.0,286047002.4,N
1503058115.8,286047002.3,N
1503058135.6,286047002.6,N
1503058155.5,286047002.6,N
1503058175.3,286047006.0,N
1503058195.1,286047006.6,N
1503058215.9,286047008.8,N
1503058235.7,286047010.6,N
1503058255.5,286047007.8,N
1503058275.3,286047006.8,N
1503058295.2,286047004.7,N
1503058315.0,286047003.2,N
1503058315.9,286047003.2,N
1503058335.7,286047004.1,N
1503058355.6,286047004.3,N
1503058375.4,286047007.7,N
1503058395.2,286047009.9,N
1503058415.1,286047011.6,P
1503058416.0,286047011.6,P
1503058435.8,286047010.4,P
1503058455.7,286047011.0,P
1503058475.5,286047007.6,P
1503058495.3,286047007.3,P
1503058515.2,286047011.1,P
1503058535.0,286047007.2,P
1503058535.9,286047007.2,P
1503058555.8,286047008.6,P
1503058575.6,286047002.4,P
1503058595.4,286047001.7,N
1503058615.2,286047002.4,N
1503058635.1,286047001.4,N
1503058636.0,286047001.4,N
1503058655.8,286047002.6,N
1503058675.6,286047001.8,N
1503058695.5,286047001.7,N
1503058715.3,286047004.6,N
1503058735.1,286047007.4,N
1503058755.9,286047004.5,N
1503058775.7,286047000.0,N
1503058795.5,286046996.1,N
1503058815.4,286046991.3,N
1503058835.2,286046987.4,P
1503058855.0,286046983.4,N
1503058856.0,286046983.4,N
1503058875.8,286046976.5,P
1503058895.6,286046984.7,N
1503058915.5,286046983.1,P
1503058935.3,286046977.3,P
1503058955.1,286046994.1,N
1503058975.9,286046990.1,N
1503058995.7,286046988.8,N
1503059015.5,286046991.3,N
1503059035.4,286046990.4,N
1503059055.2,286046990.7,N
1503059075.0,286046990.3,N
1503059075.9,286046990.3,N
1503059095.8,286046991.7,N
1503059115.6,286046993.0,N
1503059135.4,286046992.4,N
1503059155.3,286046992.8,N
1503059175.1,286046990.6,N
1503059176.0,286046990.6,N
1503059195.8,286046989.1,N
1503059215.6,286046988.7,N
1503059235.5,286046988.6,P
1503059255.4,286046996.7,P
1503059275.2,286046996.0,N
1503059295.0,286046994.3,N
1503059295.9,286046994.3,N
1503059315.7,286046992.0,N
1503059335.6,286046992.2,N
1503059355.4,286046992.1,N
1503059375.2,286046993.1,N
1503059395.1,286046992.8,N
1503059396.0,286046992.8,P
1503059415.8,286046996.9,P
1503059435.6,286047001.1,N
1503059455.5,286046997.2,N
1503059475.3,286046994.3,N
1503059495.1,286046994.0,N
1503059515.9,286046992.8,N
1503059535.7,286046989.1,P
1503059555.5,286046993.3,N
1503059575.4,286046994.7,N
1503059595.2,286046991.6,P
1503059615.1,286046996.8,P
1503059616.0,286046996.8,N
1503059635.8,286046999.3,N
1503059655.6,286046999.4,N
1503059675.5,286046998.9,N
1503059695.3,286046995.4,N
1503059715.1,286046997.4,N
1503059735.8,286046995.4,N
1503059755.7,286046997.4,N
1503059775.5,286047000.8,N
1503059795.3,286046999.3,N
1503059815.2,286046999.5,N
1503059835.9,286046998.4,N
1503059855.7,286046997.1,N
1503059875.6,286046993.8,N
1503059895.4,286046994.4,N
1503059915.2,286046994.5,N
1503059935.1,286046993.4,N
1503059936.0,286046993.4,N
1503059955.8,286046993.3,N
1503059975.6,286046993.7,N
1503059995.5,286046993.6,N
1503060015.3,286046992.2,P
1503060035.1,286046997.6,N
1503060055.9,286047001.0,N
1503060075.7,286047004.4,N
1503060095.5,286047004.9,N
1503060115.4,286047008.1,N
1503060135.2,286047010.5,N
1503060155.0,286047009.7,N
1503060155.9,286047009.7,N
1503060175.8,286047010.7,N
1503060195.6,286047012.0,N
1503060215.4,286047009.3,N
1503060235.2,286047010.2,N
1503060255.1,286047008.4,N
1503060256.0,286047008.4,N
1503060275.8,286047010.4,N
1503060295.6,286047010.4,N
1503060315.5,286047009.4,N
1503060335.3,286047011.6,N
1503060355.1,286047011.6,N
1503060375.9,286047007.8,N
1503060395.7,286047008.4,N
1503060415.5,286047010.0,N
1503060435.4,286047010.4,N
1503060455.2,286047009.3,N
1503060475.0,286047010.1,N
1503060475.9,286047010.1,N
1503060495.8,286047006.3,N
1503060515.6,286047008.8,N
1503060535.4,286047008.4,N
1503060555.2,286047007.7,N
1503060575.1,286047009.1,N
1503060576.0,286047009.1,P
1503060595.8,286046998.4,P
1503060615.7,286046997.5,N
1503060635.5,286046996.5,N
1503060655.3,286046997.6,N
1503060675.1,286046992.2,N
1503060695.9,286046993.2,N
1503060715.7,286046990.7,N
1503060735.5,286046990.0,N
1503060755.4,286046989.2,N
1503060775.2,286046988.7,N
1503060795.0,286046991.0,N
1503060795.9,286046991.0,N
1503060815.8,286046989.3,N
1503060835.6,286046991.3,N
1503060855.4,286046990.5,N
1503060875.3,286046992.4,N
1503060895.1,286046995.5,N
1503060896.0,286046995.5,N
1503060915.8,286046992.1,N
1503060935.7,286046989.1,N
1503060955.5,286046985.7,N
1503060975.3,286046985.4,N
1503060995.1,286046989.3,N
1503061015.9,286046991.8,N
1503061035.7,286046990.7,N
1503061055.5,286046991.6,N
1503061075.4,286046988.8,N
1503061095.2,286046988.8,N
1503061115.0,286046989.2,N
1503061115.9,286046989.2,N
1503061135.8,286046989.9,P
1503061155.6,286046997.7,P
1503061175.4,286046993.8,N
1503061195.3,286046991.6,N
